| time (UTC) | temp F | wind direction | speed MPH | gust MPH | rain 1hr in | rain 24hr in | rain mn in | humidity % | barometer mb |
| 20260506001535 | 61 | 7 | 0.0 | 3.0 | 0.00 | 1.42 | 0.00 | 92 | 1011.4 |
| 20260506000034 | 61 | 36 | 1.0 | 5.0 | 0.00 | 1.43 | 0.00 | 92 | 1011.5 |
| 20260505234531 | 60 | 329 | 0.0 | 2.0 | 0.00 | 1.43 | 0.00 | 93 | 1011.9 |
| 20260505233028 | 60 | 321 | 0.0 | 2.0 | 0.00 | 1.43 | 0.00 | 93 | 1012.5 |
| 20260505231541 | 60 | 333 | 0.0 | 2.0 | 0.00 | 1.43 | 0.00 | 93 | 1012.5 |
| 20260505230026 | 60 | 309 | 0.0 | 4.0 | 0.00 | 1.43 | 0.00 | 93 | 1012.8 |
| 20260505224523 | 61 | 284 | 1.0 | 4.0 | 0.00 | 1.43 | 0.00 | 92 | 1012.9 |
| 20260505223020 | 61 | 267 | 1.0 | 3.0 | 0.00 | 1.43 | 0.00 | 93 | 1013.1 |
| 20260505221519 | 61 | 283 | 0.0 | 2.0 | 0.00 | 1.43 | 0.00 | 93 | 1013.4 |
| 20260505220019 | 61 | 285 | 0.0 | 2.0 | 0.00 | 1.43 | 1.43 | 93 | 1013.2 |
| 20260505214517 | 61 | 285 | 1.0 | 3.0 | 0.00 | 1.43 | 1.43 | 93 | 1013.4 |
| 20260505213022 | 61 | 293 | 0.0 | 2.0 | 0.00 | 1.43 | 1.43 | 93 | 1013.5 |
| 20260505211515 | 61 | 278 | 0.0 | 0.0 | 0.00 | 1.43 | 1.43 | 92 | 1013.6 |
| 20260505210015 | 61 | 278 | 1.0 | 4.0 | 0.00 | 1.43 | 1.43 | 91 | 1013.7 |
| 20260505204513 | 61 | 313 | 0.0 | 0.0 | 0.00 | 1.43 | 1.43 | 91 | 1013.8 |
| 20260505203017 | 61 | 313 | 0.0 | 0.0 | 0.00 | 1.43 | 1.43 | 92 | 1014.0 |
| 20260505201527 | 60 | 313 | 0.0 | 2.0 | 0.00 | 1.43 | 1.43 | 93 | 1013.9 |
| 20260505200013 | 61 | 311 | 1.0 | 4.0 | 0.00 | 1.43 | 1.43 | 93 | 1013.9 |
| 20260505194511 | 61 | 256 | 0.0 | 1.0 | 0.00 | 1.43 | 1.43 | 92 | 1013.9 |
| 20260505193010 | 61 | 295 | 0.0 | 1.0 | 0.00 | 1.43 | 1.43 | 92 | 1013.8 |
| 20260505191512 | 61 | 281 | 0.0 | 1.0 | 0.00 | 1.43 | 1.43 | 91 | 1013.8 |
| 20260505190012 | 61 | 281 | 0.0 | 0.0 | 0.00 | 1.43 | 1.43 | 91 | 1013.6 |
| 20260505184509 | 62 | 281 | 0.0 | 2.0 | 0.00 | 1.43 | 1.43 | 89 | 1013.5 |
| 20260505183015 | 62 | 261 | 0.0 | 2.0 | 0.00 | 1.43 | 1.43 | 88 | 1013.6 |
| 20260505181507 | 62 | 262 | 0.0 | 2.0 | 0.00 | 1.43 | 1.43 | 88 | 1013.7 |
| 20260505180008 | 62 | 236 | 0.0 | 3.0 | 0.00 | 1.43 | 1.43 | 88 | 1013.7 |
| 20260505174507 | 63 | 125 | 0.0 | 3.0 | 0.00 | 1.43 | 1.43 | 88 | 1013.6 |
| 20260505173005 | 63 | 282 | 0.0 | 3.0 | 0.00 | 1.43 | 1.43 | 88 | 1013.5 |
| 20260505171506 | 63 | 120 | 0.0 | 4.0 | 0.00 | 1.43 | 1.43 | 87 | 1013.4 |
| 20260505170002 | 63 | 285 | 0.0 | 7.0 | 0.00 | 1.43 | 1.43 | 88 | 1013.6 |
| 20260505164502 | 63 | 135 | 2.0 | 5.0 | 0.00 | 1.43 | 1.43 | 86 | 1013.7 |
| 20260505163003 | 63 | 151 | 1.0 | 6.0 | 0.00 | 1.43 | 1.43 | 87 | 1013.6 |
| 20260505161501 | 64 | 122 | 2.0 | 8.0 | 0.00 | 1.43 | 1.43 | 86 | 1013.6 |
| 20260505153108 | 64 | 316 | 0.0 | 4.0 | 0.00 | 1.43 | 1.43 | 84 | 1013.8 |
| 20260505151605 | 64 | 252 | 1.0 | 7.0 | 0.00 | 1.43 | 1.43 | 84 | 1013.9 |
| 20260505140104 | 65 | 112 | 3.0 | 7.0 | 0.00 | 1.43 | 1.43 | 83 | 1013.7 |
| 20260505124554 | 65 | 127 | 2.0 | 5.0 | 0.00 | 1.43 | 1.43 | 81 | 1013.8 |
| 20260505123051 | 65 | 77 | 2.0 | 5.0 | 0.00 | 1.43 | 1.43 | 82 | 1013.9 |
| 20260505121605 | 64 | 72 | 1.0 | 4.0 | 0.00 | 1.43 | 1.43 | 83 | 1014.0 |
| 20260505120048 | 63 | 51 | 2.0 | 6.0 | 0.00 | 1.43 | 1.43 | 83 | 1013.9 |
| 20260505114547 | 64 | 354 | 0.0 | 3.0 | 0.00 | 1.43 | 1.43 | 85 | 1014.0 |
| 20260505113046 | 62 | 49 | 0.0 | 7.0 | 0.00 | 1.43 | 1.43 | 87 | 1014.0 |
| 20260505111546 | 62 | 82 | 3.0 | 8.0 | 0.00 | 1.43 | 1.43 | 86 | 1014.1 |
| 20260505101552 | 61 | 49 | 0.0 | 6.0 | 0.06 | 1.43 | 1.43 | 90 | 1014.1 |
| 20260505100040 | 60 | 85 | 0.0 | 0.0 | 0.06 | 1.43 | 1.43 | 95 | 1014.1 |
| 20260505094540 | 58 | 15 | 0.0 | 2.0 | 0.06 | 1.43 | 1.43 | 93 | 1014.2 |
| 20260505093043 | 59 | 15 | 0.0 | 1.0 | 0.04 | 1.40 | 1.40 | 89 | 1014.3 |
| 20260505091541 | 59 | 340 | 4.0 | 9.0 | 0.00 | 1.36 | 1.36 | 84 | 1014.1 |
| 20260505090054 | 60 | 356 | 3.0 | 8.0 | 0.00 | 1.36 | 1.36 | 84 | 1014.0 |
| 20260505084548 | 61 | 40 | 4.0 | 9.0 | 0.00 | 1.36 | 1.36 | 83 | 1013.9 |
| 20260505083039 | 61 | 68 | 2.0 | 10.0 | 0.00 | 1.36 | 1.36 | 85 | 1013.5 |
| 20260505081543 | 61 | 43 | 2.0 | 10.0 | 0.00 | 1.36 | 1.36 | 84 | 1013.4 |
| 20260505080036 | 61 | 262 | 0.0 | 7.0 | 0.00 | 1.36 | 1.36 | 82 | 1013.7 |
| 20260505074536 | 61 | 285 | 0.0 | 3.0 | 0.00 | 1.36 | 1.36 | 88 | 1013.3 |
| 20260505073039 | 59 | 82 | 1.0 | 5.0 | 0.00 | 1.36 | 1.36 | 89 | 1013.7 |
| 20260505071534 | 59 | 30 | 1.0 | 8.0 | 0.00 | 1.36 | 1.36 | 90 | 1013.5 |
| 20260505070034 | 58 | 35 | 1.0 | 5.0 | 0.02 | 1.36 | 1.36 | 92 | 1013.5 |
| 20260505064533 | 57 | 316 | 0.0 | 9.0 | 0.04 | 1.36 | 1.36 | 90 | 1013.3 |
| 20260505063038 | 57 | 16 | 2.0 | 11.0 | 0.09 | 1.36 | 1.36 | 89 | 1012.9 |
| 20260505061536 | 56 | 29 | 10.0 | 17.0 | 0.18 | 1.36 | 1.36 | 90 | 1012.6 |
| 20260505060033 | 56 | 23 | 6.0 | 15.0 | 0.25 | 1.35 | 1.35 | 95 | 1012.7 |
| 20260505054536 | 55 | 260 | 1.0 | 6.0 | 0.27 | 1.32 | 1.32 | 97 | 1012.9 |
| 20260505053036 | 55 | 37 | 5.0 | 16.0 | 0.27 | 1.27 | 1.27 | 95 | 1012.0 |
| 20260505051523 | 56 | 61 | 2.0 | 4.0 | 0.27 | 1.18 | 1.18 | 99 | 1012.8 |
| 20260505041519 | 56 | 56 | 0.0 | 6.0 | 0.52 | 0.91 | 0.91 | 98 | 1013.3 |
| 20260505040018 | 55 | 6 | 2.0 | 7.0 | 0.49 | 0.80 | 0.80 | 98 | 1013.0 |
| 20260505034515 | 56 | 222 | 1.0 | 4.0 | 0.24 | 0.51 | 0.51 | 98 | 1013.3 |
| 20260505033018 | 56 | 322 | 1.0 | 2.0 | 0.19 | 0.43 | 0.43 | 98 | 1013.2 |
| 20260505031509 | 56 | 330 | 0.0 | 1.0 | 0.20 | 0.39 | 0.39 | 98 | 1013.3 |
| 20260505030007 | 57 | 330 | 0.0 | 0.0 | 0.14 | 0.31 | 0.31 | 98 | 1013.8 |
| 20260505024505 | 57 | 330 | 0.0 | 0.0 | 0.13 | 0.27 | 0.27 | 98 | 1013.9 |
| 20260505023002 | 57 | 330 | 0.0 | 3.0 | 0.13 | 0.24 | 0.24 | 97 | 1014.2 |
| 20260505021559 | 57 | 321 | 0.0 | 0.0 | 0.10 | 0.20 | 0.20 | 96 | 1014.4 |
| 20260505020057 | 57 | 321 | 0.0 | 2.0 | 0.11 | 0.17 | 0.17 | 96 | 1014.5 |
| 20260505014555 | 57 | 307 | 0.0 | 3.0 | 0.10 | 0.13 | 0.13 | 96 | 1014.7 |
| 20260505013052 | 58 | 31 | 1.0 | 2.0 | 0.09 | 0.11 | 0.11 | 93 | 1015.0 |
| 20260505011555 | 59 | 32 | 0.0 | 6.0 | 0.09 | 0.09 | 0.09 | 91 | 1015.1 |
| 20260505010046 | 59 | 342 | 1.0 | 4.0 | 0.05 | 0.06 | 0.06 | 89 | 1015.2 |
| 20260505004548 | 59 | 359 | 0.0 | 2.0 | 0.03 | 0.03 | 0.03 | 90 | 1015.6 |
| 20260505003040 | 60 | 348 | 0.0 | 2.0 | 0.02 | 0.02 | 0.02 | 89 | 1015.7 |